Regional Weather Roundup
Issued by NWS

Home | Current Version | Previous Version | Graphics & Text | Print | Product List | Glossary Off
Versions: 1 2 3 4 5 6 7 8 9 10 11 12 13 14 15 16 17 18 19 20 21 22 23 24 25 26 27 28 29 30 31 32 33 34 35 36 37 38 39 40 41 42 43 44 45 46 47 48 49 50

000
ASUS44 KMEG 240810
RWRTN
TENNESSEE HOURLY STATE WEATHER ROUNDUP
NATIONAL WEATHER SERVICE MEMPHIS TN
200 AM CST MON NOV 24 2014

TNZ002-004-019-021-049-052-054-088>092-240900-
WEST TENNESSEE

CITY           SKY/WX    TMP DP  RH WIND       PRES   REMARKS
MEMPHIS INTL   PTCLDY    61  53  75 SW20G28   29.47R
NWS MEMPHIS      N/A     61 N/A N/A MISG        N/A
JACKSON        PTCLDY    60  54  80 SW17G26   29.43R
DYERSBURG      CLOUDY   N/A N/A N/A SW15G24   29.39R
UNION CITY     CLOUDY    59  57  94 S12       29.35R
PARIS          PTCLDY    57  54  88 S17       29.38S
HUNTINGDON     PTCLDY    58  54  86 S13       29.40S
LEXINGTON      CLEAR     59  54  82 S17       29.44S
SAVANNAH       PTCLDY    61  55  82 S15       29.49F
$$

TNZ008-025-027-028-033-062-065-066-240900-
NORTH MIDDLE TENNESSEE

CITY           SKY/WX    TMP DP  RH WIND       PRES   REMARKS
NASHVILLE      MOCLDY    63  56  78 S20G33    29.49R
CLARKSVILLE    MOCLDY    62  56  80 S16G28    29.40S
SMYRNA         MOCLDY    62  56  81 S13G20    29.50S
COOKEVILLE     PTCLDY    63  54  72 SW20      29.54S
CROSSVILLE     MOCLDY    60  53  77 S9G26     29.60S
$$

TNZ061-075-076-078-094-096-097-240900-
SOUTH MIDDLE TENNESSEE

CITY           SKY/WX    TMP DP  RH WIND       PRES   REMARKS
FAYETTEVILLE   MOCLDY    59  55  88 MISG      29.59S
TULLAHOMA      MOCLDY    61  54  77 S16G24    29.59R
WINCHESTER     PTCLDY    61  54  77 S13       29.60S
MCMINNVILLE    PTCLDY    61  55  82 SW8       29.56S
COLUMBIA       CLEAR     61  61 100 S16       29.49S
SHELBYVILLE    MOCLDY    63  57  82 S17G38    29.56S
$$

TNZ017-018-042-046-047-240900-
NORTHEAST TENNESSEE

CITY           SKY/WX    TMP DP  RH WIND       PRES   REMARKS
TRI CITIES     CLOUDY    58  51  78 SW5       29.64R
ELIZABETHTON   CLOUDY    54  50  87 CALM      29.65S
$$

TNZ012-013-036-069-073-074-240900-
CENTRAL EAST TENNESSEE

CITY           SKY/WX    TMP DP  RH WIND       PRES   REMARKS
KNOXVILLE      PTCLDY    62  53  72 SW25G33   29.62
OAK RIDGE      CLOUDY    62  55  77 S12G18    29.63R
GATLINBURG     SUNNY     63  48  59 SW10      29.61S
MORRISTOWN     MOSUNNY   63  52  67 SW16      29.62S
$$

TNZ083-085-099-240900-
SOUTHEAST TENNESSEE

CITY           SKY/WX    TMP DP  RH WIND       PRES   REMARKS
CHATTANOOGA    CLOUDY    62  56  80 S13G18    29.66R
$$

SKY/WX REPORTED AS FAIR MEANS FEW OR NO CLOUDS BELOW
12 THOUSAND FEET.



USA.gov is the U.S. government's official web portal to all federal, state and local government web resources and services.